Location: Blandford
(50.8667°N, 2.1667°W)
Time: 19:09:28
(UTC+00:00)

ALOS 2 - Pass Details

Date: 09 April 2020
Orbit: 630 x 632 km, 97.9° (Epoch: 03 June)

Event Time Altitude Azimuth Distance (km) Brightness Sun altitude
Exits shadow 22:36:43 28° 42° (NE) 1,199 4.1 -27.7°
Drops below altitude 10° 22:39:40 10° 4° (N) 2,028 5.9 -28.0°
Sets 22:42:04 0° 354° (N) 2,941 7.1 -28.1°
